QPF
0.08 0.08 0.10 0.10 0.08 0.06 0.05 0.04 0.02 0.02 0.01 0.00 0.00 0.00 0.00 0.00 0.00 0.00 0.00 0.00 0.00 0.00 0.00 0.00 0.00 0.00 0.00 0.00 0.00 0.00 0.00 0.00 0.00 0.00 0.00 0.00 0.00 0.00 0.00 0.00 0.00 0.00 0.00
0.09 0.09 0.09 0.10 0.09 0.08 0.08 0.06 0.04 0.03 0.02 0.01 0.00 0.00 0.00 0.00 0.00 0.00 0.00 0.00 0.00 0.00 0.00 0.00 0.00 0.00 0.01 0.01 0.01 0.00 0.00 0.00 0.00 0.00 0.00 0.00 0.00 0.00 0.00 0.00 0.00 0.00 0.00
0.09 0.09 0.09 0.09 0.09 0.08 0.09 0.09 0.08 0.06 0.04 0.02 0.01 0.00 0.00 0.00 0.00 0.00 0.00 0.00 0.00 0.00 0.00 0.00 0.00 0.00 0.00 0.00 0.00 0.00 0.00 0.00 0.00 0.00 0.00 0.00 0.00 0.00 0.00 0.00 0.00 0.00 0.00
0.10 0.09 0.07 0.07 0.08 0.10 0.11 0.10 0.09 0.08 0.06 0.03 0.01 0.01 0.00 0.00 0.00 0.00 0.00 0.00 0.00 0.00 0.00 0.00 0.00 0.00 0.00 0.00 0.00 0.00 0.00 0.00 0.00 0.00 0.00 0.00 0.00 0.01 0.01 0.01 0.01 0.01 0.00
0.12 0.10 0.08 0.07 0.10 0.12 0.12 0.10 0.08 0.08 0.07 0.05 0.03 0.01 0.00 0.00 0.00 0.00 0.00 0.00 0.00 0.00 0.00 0.00 0.00 0.00 0.00 0.00 0.00 0.01 0.00 0.00 0.00 0.00 0.00 0.00 0.00 0.00 0.00 0.01 0.01 0.00 0.00
0.13 0.10 0.08 0.07 0.10 0.13 0.13 0.11 0.09 0.08 0.07 0.06 0.04 0.02 0.01 0.01 0.00 0.00 0.00 0.00 0.00 0.00 0.00 0.00 0.00 0.00 0.00 0.00 0.00 0.00 0.01 0.00 0.00 0.00 0.00 0.00 0.00 0.00 0.00 0.00 0.00 0.01 0.00
0.15 0.12 0.08 0.07 0.09 0.10 0.11 0.12 0.14 0.14 0.11 0.08 0.07 0.04 0.02 0.01 0.01 0.00 0.00 0.00 0.00 0.00 0.00 0.00 0.00 0.00 0.00 0.00 0.00 0.00 0.00 0.01 0.00 0.00 0.00 0.00 0.00 0.00 0.00 0.00 0.00 0.00 0.00
0.12 0.11 0.09 0.08 0.08 0.09 0.10 0.11 0.14 0.16 0.16 0.14 0.13 0.11 0.07 0.04 0.02 0.00 0.00 0.00 0.00 0.00 0.00 0.00 0.00 0.00 0.00 0.00 0.00 0.00 0.00 0.00 0.01 0.01 0.00 0.00 0.00 0.00 0.00 0.00 0.01 0.01 0.01
0.10 0.10 0.10 0.10 0.11 0.11 0.10 0.10 0.11 0.13 0.15 0.16 0.15 0.14 0.11 0.07 0.03 0.01 0.00 0.00 0.00 0.00 0.00 0.00 0.00 0.00 0.00 0.00 0.00 0.00 0.00 0.00 0.00 0.01 0.01 0.01 0.01 0.01 0.01 0.01 0.01 0.01 0.01
0.09 0.08 0.09 0.11 0.13 0.13 0.13 0.14 0.15 0.14 0.16 0.16 0.16 0.15 0.11 0.07 0.05 0.03 0.01 0.00 0.00 0.00 0.00 0.00 0.00 0.00 0.00 0.00 0.00 0.00 0.00 0.00 0.00 0.00 0.01 0.01 0.01 0.01 0.01 0.02 0.02 0.02 0.02
0.11 0.09 0.08 0.08 0.10 0.11 0.12 0.13 0.15 0.15 0.15 0.16 0.16 0.15 0.14 0.11 0.08 0.06 0.04 0.02 0.01 0.00 0.00 0.00 0.00 0.00 0.00 0.00 0.00 0.00 0.00 0.00 0.00 0.00 0.01 0.01 0.02 0.02 0.03 0.03 0.03 0.03 0.03
0.08 0.08 0.08 0.07 0.07 0.08 0.09 0.10 0.12 0.13 0.13 0.13 0.13 0.13 0.12 0.10 0.08 0.06 0.05 0.03 0.02 0.01 0.00 0.00 0.00 0.00 0.00 0.00 0.00 0.00 0.00 0.00 0.00 0.00 0.01 0.01 0.02 0.02 0.03 0.03 0.03 0.03 0.03
0.06 0.06 0.07 0.07 0.07 0.08 0.08 0.10 0.12 0.12 0.13 0.14 0.14 0.12 0.11 0.09 0.08 0.07 0.07 0.05 0.04 0.02 0.01 0.01 0.01 0.01 0.01 0.01 0.00 0.01 0.01 0.01 0.01 0.01 0.01 0.01 0.02 0.02 0.02 0.01 0.02 0.02 0.02
0.07 0.07 0.08 0.08 0.08 0.08 0.09 0.10 0.11 0.12 0.12 0.14 0.15 0.14 0.14 0.13 0.12 0.11 0.10 0.09 0.08 0.06 0.04 0.02 0.01 0.01 0.01 0.01 0.01 0.01 0.01 0.01 0.01 0.01 0.01 0.01 0.01 0.01 0.01 0.01 0.01 0.02 0.02
0.07 0.08 0.08 0.08 0.08 0.08 0.08 0.10 0.11 0.12 0.13 0.15 0.16 0.17 0.17 0.15 0.16 0.15 0.13 0.13 0.13 0.11 0.06 0.03 0.02 0.02 0.02 0.02 0.02 0.01 0.01 0.01 0.01 0.01 0.01 0.02 0.02 0.02 0.02 0.02 0.02 0.02 0.02
0.06 0.06 0.07 0.07 0.07 0.08 0.09 0.10 0.10 0.10 0.12 0.13 0.15 0.18 0.19 0.17 0.15 0.14 0.14 0.14 0.14 0.14 0.10 0.05 0.03 0.03 0.03 0.02 0.02 0.02 0.01 0.02 0.02 0.02 0.02 0.02 0.02 0.03 0.03 0.03 0.03 0.02 0.02
0.04 0.05 0.06 0.06 0.07 0.07 0.09 0.09 0.10 0.09 0.10 0.12 0.14 0.15 0.17 0.19 0.20 0.20 0.19 0.18 0.18 0.18 0.16 0.09 0.05 0.05 0.05 0.05 0.05 0.04 0.03 0.02 0.02 0.02 0.02 0.02 0.02 0.03 0.03 0.03 0.03 0.03 0.02
0.04 0.04 0.05 0.06 0.06 0.07 0.07 0.07 0.08 0.09 0.09 0.10 0.11 0.13 0.14 0.16 0.18 0.20 0.21 0.21 0.20 0.20 0.20 0.15 0.09 0.07 0.07 0.06 0.06 0.06 0.05 0.03 0.02 0.02 0.02 0.02 0.02 0.02 0.02 0.02 0.02 0.02 0.02
0.05 0.05 0.06 0.06 0.05 0.05 0.05 0.06 0.06 0.07 0.08 0.09 0.10 0.11 0.12 0.15 0.17 0.18 0.20 0.20 0.20 0.20 0.20 0.18 0.13 0.08 0.07 0.07 0.07 0.06 0.05 0.04 0.03 0.02 0.02 0.02 0.02 0.02 0.03 0.03 0.03 0.02 0.02
0.04 0.05 0.05 0.05 0.05 0.05 0.05 0.05 0.06 0.07 0.08 0.08 0.09 0.10 0.11 0.13 0.14 0.16 0.18 0.19 0.18 0.18 0.19 0.20 0.16 0.12 0.10 0.10 0.10 0.10 0.08 0.05 0.04 0.02 0.02 0.02 0.02 0.02 0.03 0.03 0.03 0.03 0.03
0.05 0.05 0.04 0.04 0.04 0.04 0.04 0.04 0.05 0.06 0.06 0.07 0.07 0.07 0.09 0.11 0.12 0.14 0.17 0.19 0.20 0.22 0.22 0.21 0.19 0.15 0.13 0.12 0.12 0.10 0.09 0.08 0.06 0.05 0.04 0.03 0.03 0.02 0.02 0.03 0.03 0.03 0.03
0.04 0.04 0.04 0.04 0.04 0.04 0.05 0.05 0.05 0.06 0.06 0.06 0.06 0.06 0.07 0.09 0.11 0.12 0.14 0.15 0.18 0.19 0.19 0.18 0.17 0.13 0.10 0.09 0.09 0.09 0.10 0.10 0.09 0.06 0.05 0.05 0.04 0.04 0.03 0.03 0.04 0.05 0.05
0.06 0.05 0.06 0.06 0.05 0.04 0.05 0.04 0.04 0.04 0.04 0.05 0.05 0.05 0.05 0.06 0.07 0.06 0.08 0.10 0.11 0.13 0.14 0.13 0.12 0.09 0.07 0.06 0.07 0.09 0.09 0.09 0.08 0.06 0.07 0.08 0.06 0.05 0.04 0.04 0.05 0.05 0.05
0.07 0.07 0.07 0.07 0.08 0.06 0.05 0.04 0.04 0.03 0.03 0.04 0.04 0.05 0.04 0.04 0.04 0.04 0.05 0.06 0.07 0.08 0.10 0.10 0.09 0.06 0.05 0.05 0.06 0.07 0.09 0.11 0.11 0.09 0.08 0.09 0.07 0.05 0.05 0.05 0.06 0.07 0.06
0.07 0.07 0.06 0.06 0.07 0.06 0.06 0.05 0.04 0.03 0.03 0.03 0.04 0.04 0.05 0.05 0.06 0.06 0.05 0.05 0.06 0.07 0.08 0.10 0.10 0.09 0.08 0.08 0.09 0.11 0.14 0.16 0.14 0.10 0.08 0.08 0.07 0.07 0.06 0.06 0.06 0.08 0.07
0.04 0.04 0.04 0.04 0.05 0.05 0.05 0.05 0.04 0.03 0.03 0.03 0.03 0.03 0.04 0.04 0.05 0.05 0.05 0.05 0.06 0.06 0.06 0.08 0.10 0.12 0.11 0.11 0.12 0.10 0.11 0.12 0.12 0.10 0.07 0.07 0.08 0.09 0.10 0.07 0.06 0.06 0.07
MSLP
1012.79 1013.07 1013.36 1013.68 1014.02 1014.37 1014.72 1015.06 1015.37 1015.62 1015.80 1015.91 1015.96 1015.97 1015.97 1016.00 1016.07 1016.20 1016.40 1016.63 1016.88 1017.11 1017.31 1017.45 1017.53 1017.57 1017.57 1017.55 1017.53 1017.52 1017.51 1017.51 1017.53 1017.56 1017.61 1017.68 1017.77 1017.89 1018.02 1018.15 1018.26 1018.33 1018.37
1012.24 1012.47 1012.74 1013.05 1013.39 1013.76 1014.14 1014.50 1014.83 1015.10 1015.30 1015.42 1015.48 1015.50 1015.51 1015.53 1015.60 1015.72 1015.89 1016.10 1016.34 1016.57 1016.77 1016.94 1017.06 1017.14 1017.18 1017.20 1017.21 1017.20 1017.20 1017.19 1017.20 1017.23 1017.29 1017.37 1017.49 1017.64 1017.80 1017.95 1018.08 1018.18 1018.23
1011.75 1011.92 1012.16 1012.45 1012.79 1013.16 1013.55 1013.94 1014.29 1014.59 1014.82 1014.97 1015.05 1015.09 1015.10 1015.11 1015.14 1015.23 1015.35 1015.52 1015.71 1015.92 1016.12 1016.31 1016.47 1016.59 1016.69 1016.77 1016.81 1016.84 1016.86 1016.87 1016.88 1016.92 1016.98 1017.09 1017.23 1017.40 1017.59 1017.78 1017.94 1018.06 1018.13
1011.33 1011.44 1011.63 1011.90 1012.22 1012.60 1013.01 1013.42 1013.80 1014.14 1014.40 1014.59 1014.71 1014.76 1014.78 1014.77 1014.77 1014.80 1014.85 1014.95 1015.08 1015.24 1015.42 1015.61 1015.80 1015.97 1016.13 1016.27 1016.37 1016.45 1016.50 1016.53 1016.57 1016.62 1016.70 1016.81 1016.98 1017.17 1017.39 1017.61 1017.80 1017.95 1018.04
1010.94 1011.00 1011.16 1011.39 1011.71 1012.09 1012.51 1012.94 1013.36 1013.74 1014.06 1014.30 1014.46 1014.54 1014.57 1014.56 1014.52 1014.48 1014.46 1014.47 1014.52 1014.61 1014.75 1014.92 1015.12 1015.33 1015.53 1015.73 1015.89 1016.02 1016.12 1016.19 1016.24 1016.31 1016.41 1016.54 1016.71 1016.93 1017.16 1017.40 1017.62 1017.79 1017.92
1010.54 1010.57 1010.69 1010.91 1011.21 1011.60 1012.03 1012.49 1012.95 1013.37 1013.75 1014.05 1014.27 1014.41 1014.46 1014.45 1014.38 1014.29 1014.20 1014.12 1014.08 1014.09 1014.16 1014.29 1014.47 1014.69 1014.93 1015.17 1015.38 1015.56 1015.70 1015.81 1015.89 1015.98 1016.09 1016.23 1016.41 1016.63 1016.87 1017.12 1017.35 1017.55 1017.70
1010.09 1010.09 1010.19 1010.40 1010.70 1011.09 1011.53 1012.01 1012.51 1012.99 1013.42 1013.79 1014.08 1014.28 1014.38 1014.39 1014.33 1014.21 1014.05 1013.90 1013.77 1013.69 1013.69 1013.75 1013.89 1014.10 1014.34 1014.59 1014.84 1015.05 1015.24 1015.38 1015.50 1015.61 1015.73 1015.87 1016.04 1016.25 1016.49 1016.73 1016.97 1017.18 1017.35
1009.58 1009.56 1009.65 1009.85 1010.14 1010.52 1010.97 1011.47 1011.99 1012.51 1013.00 1013.44 1013.81 1014.08 1014.25 1014.31 1014.26 1014.14 1013.95 1013.74 1013.54 1013.38 1013.29 1013.28 1013.36 1013.52 1013.73 1013.98 1014.24 1014.49 1014.70 1014.89 1015.04 1015.17 1015.30 1015.45 1015.61 1015.80 1016.01 1016.23 1016.45 1016.66 1016.84
1009.05 1009.01 1009.08 1009.26 1009.54 1009.90 1010.34 1010.84 1011.37 1011.91 1012.45 1012.94 1013.37 1013.72 1013.96 1014.08 1014.09 1013.98 1013.79 1013.55 1013.29 1013.07 1012.89 1012.81 1012.81 1012.91 1013.09 1013.31 1013.57 1013.84 1014.09 1014.31 1014.50 1014.67 1014.83 1014.97 1015.13 1015.29 1015.46 1015.64 1015.82 1016.01 1016.19
1008.56 1008.50 1008.54 1008.68 1008.93 1009.26 1009.67 1010.14 1010.65 1011.20 1011.74 1012.27 1012.75 1013.16 1013.46 1013.65 1013.71 1013.64 1013.47 1013.23 1012.95 1012.67 1012.43 1012.27 1012.20 1012.23 1012.36 1012.56 1012.81 1013.09 1013.37 1013.65 1013.89 1014.11 1014.29 1014.46 1014.60 1014.73 1014.86 1014.99 1015.12 1015.27 1015.43
1008.24 1008.13 1008.12 1008.21 1008.41 1008.69 1009.04 1009.45 1009.92 1010.43 1010.96 1011.48 1011.98 1012.41 1012.76 1013.00 1013.11 1013.09 1012.95 1012.73 1012.44 1012.13 1011.85 1011.63 1011.49 1011.46 1011.53 1011.70 1011.95 1012.25 1012.57 1012.90 1013.21 1013.48 1013.72 1013.90 1014.05 1014.16 1014.25 1014.32 1014.40 1014.49 1014.62
1008.18 1008.00 1007.93 1007.96 1008.08 1008.28 1008.56 1008.90 1009.29 1009.73 1010.20 1010.68 1011.15 1011.58 1011.93 1012.20 1012.34 1012.36 1012.26 1012.06 1011.79 1011.47 1011.16 1010.89 1010.70 1010.62 1010.65 1010.78 1011.02 1011.33 1011.70 1012.09 1012.46 1012.81 1013.10 1013.33 1013.49 1013.59 1013.64 1013.66 1013.69 1013.73 1013.82
1008.45 1008.21 1008.06 1008.01 1008.05 1008.17 1008.35 1008.60 1008.90 1009.25 1009.62 1010.02 1010.42 1010.80 1011.13 1011.38 1011.53 1011.57 1011.50 1011.33 1011.07 1010.76 1010.43 1010.14 1009.91 1009.78 1009.76 1009.87 1010.09 1010.42 1010.82 1011.25 1011.69 1012.10 1012.45 1012.72 1012.91 1013.01 1013.04 1013.03 1013.01 1013.01 1013.06
1009.09 1008.77 1008.55 1008.42 1008.38 1008.41 1008.51 1008.66 1008.86 1009.09 1009.36 1009.65 1009.95 1010.24 1010.50 1010.71 1010.85 1010.88 1010.82 1010.66 1010.42 1010.12 1009.79 1009.48 1009.22 1009.05 1008.99 1009.06 1009.26 1009.57 1009.98 1010.45 1010.93 1011.38 1011.77 1012.08 1012.29 1012.39 1012.42 1012.39 1012.34 1012.32 1012.35
1010.03 1009.65 1009.37 1009.19 1009.08 1009.05 1009.07 1009.13 1009.22 1009.35 1009.50 1009.68 1009.86 1010.04 1010.21 1010.35 1010.43 1010.45 1010.38 1010.23 1009.99 1009.70 1009.38 1009.05 1008.76 1008.55 1008.44 1008.46 1008.61 1008.89 1009.27 1009.72 1010.20 1010.66 1011.07 1011.39 1011.61 1011.73 1011.76 1011.73 1011.68 1011.65 1011.69
1011.17 1010.77 1010.47 1010.25 1010.10 1010.02 1009.98 1009.97 1009.99 1010.02 1010.06 1010.12 1010.19 1010.26 1010.33 1010.38 1010.40 1010.38 1010.29 1010.14 1009.92 1009.63 1009.30 1008.97 1008.65 1008.39 1008.22 1008.16 1008.24 1008.44 1008.74 1009.13 1009.56 1009.98 1010.36 1010.67 1010.88 1011.00 1011.03 1011.01 1010.98 1010.97 1011.03
1012.40 1012.00 1011.70 1011.47 1011.31 1011.21 1011.14 1011.09 1011.05 1011.01 1010.97 1010.93 1010.89 1010.87 1010.84 1010.82 1010.78 1010.72 1010.61 1010.45 1010.23 1009.95 1009.63 1009.27 1008.92 1008.61 1008.37 1008.22 1008.19 1008.27 1008.46 1008.73 1009.05 1009.38 1009.69 1009.93 1010.10 1010.20 1010.23 1010.23 1010.22 1010.25 1010.34
1013.56 1013.20 1012.92 1012.71 1012.57 1012.46 1012.39 1012.32 1012.24 1012.15 1012.05 1011.95 1011.84 1011.74 1011.65 1011.56 1011.48 1011.39 1011.27 1011.11 1010.89 1010.62 1010.29 1009.93 1009.55 1009.18 1008.86 1008.61 1008.45 1008.38 1008.42 1008.53 1008.70 1008.89 1009.08 1009.22 1009.32 1009.37 1009.38 1009.38 1009.40 1009.47 1009.61
1014.57 1014.26 1014.02 1013.85 1013.72 1013.63 1013.55 1013.47 1013.37 1013.26 1013.13 1012.98 1012.83 1012.69 1012.56 1012.45 1012.34 1012.24 1012.12 1011.97 1011.76 1011.50 1011.19 1010.81 1010.41 1009.99 1009.59 1009.24 1008.95 1008.74 1008.61 1008.54 1008.53 1008.55 1008.58 1008.59 1008.59 1008.56 1008.53 1008.51 1008.54 1008.63 1008.81
1015.38 1015.13 1014.93 1014.78 1014.67 1014.58 1014.50 1014.41 1014.31 1014.18 1014.03 1013.87 1013.71 1013.56 1013.42 1013.30 1013.20 1013.10 1012.99 1012.86 1012.68 1012.44 1012.13 1011.76 1011.35 1010.90 1010.44 1010.00 1009.60 1009.25 1008.96 1008.72 1008.53 1008.37 1008.22 1008.09 1007.95 1007.83 1007.72 1007.66 1007.67 1007.76 1007.95
1016.00 1015.80 1015.63 1015.49 1015.38 1015.28 1015.18 1015.07 1014.95 1014.81 1014.66 1014.50 1014.34 1014.20 1014.08 1013.97 1013.89 1013.81 1013.73 1013.61 1013.46 1013.25 1012.96 1012.61 1012.20 1011.74 1011.25 1010.76 1010.27 1009.81 1009.39 1009.01 1008.65 1008.33 1008.02 1007.73 1007.46 1007.22 1007.01 1006.88 1006.83 1006.89 1007.06
1016.48 1016.30 1016.14 1015.99 1015.86 1015.73 1015.60 1015.46 1015.31 1015.16 1015.00 1014.85 1014.70 1014.58 1014.48 1014.40 1014.33 1014.28 1014.21 1014.13 1013.99 1013.80 1013.55 1013.22 1012.83 1012.38 1011.89 1011.38 1010.85 1010.33 1009.82 1009.33 1008.85 1008.40 1007.95 1007.52 1007.11 1006.74 1006.43 1006.19 1006.06 1006.04 1006.16
1016.86 1016.69 1016.52 1016.35 1016.18 1016.00 1015.83 1015.64 1015.46 1015.29 1015.12 1014.97 1014.83 1014.72 1014.64 1014.57 1014.53 1014.48 1014.42 1014.34 1014.22 1014.05 1013.82 1013.53 1013.16 1012.74 1012.28 1011.77 1011.25 1010.71 1010.16 1009.61 1009.05 1008.50 1007.95 1007.41 1006.88 1006.39 1005.96 1005.61 1005.36 1005.24 1005.27
1017.20 1017.03 1016.84 1016.64 1016.42 1016.19 1015.96 1015.74 1015.52 1015.31 1015.13 1014.97 1014.83 1014.72 1014.63 1014.57 1014.51 1014.45 1014.38 1014.29 1014.17 1014.00 1013.78 1013.50 1013.17 1012.79 1012.36 1011.90 1011.40 1010.87 1010.32 1009.75 1009.16 1008.55 1007.93 1007.31 1006.69 1006.10 1005.55 1005.08 1004.72 1004.49 1004.40
1017.50 1017.33 1017.13 1016.89 1016.64 1016.37 1016.10 1015.84 1015.58 1015.35 1015.14 1014.96 1014.81 1014.68 1014.57 1014.48 1014.38 1014.29 1014.18 1014.05 1013.90 1013.71 1013.49 1013.22 1012.92 1012.57 1012.18 1011.75 1011.29 1010.79 1010.26 1009.69 1009.09 1008.46 1007.80 1007.12 1006.44 1005.77 1005.13 1004.56 1004.09 1003.75 1003.55
1017.77 1017.59 1017.38 1017.14 1016.87 1016.59 1016.29 1016.00 1015.73 1015.47 1015.24 1015.04 1014.85 1014.69 1014.53 1014.38 1014.22 1014.07 1013.89 1013.71 1013.51 1013.28 1013.04 1012.77 1012.47 1012.14 1011.78 1011.38 1010.95 1010.47 1009.95 1009.39 1008.79 1008.14 1007.46 1006.75 1006.03 1005.31 1004.61 1003.97 1003.42 1002.99 1002.71
Thickness
5698 5698 5697 5697 5696 5696 5695 5694 5693 5692 5692 5693 5693 5693 5693 5693 5694 5694 5693 5691 5689 5688 5686 5685 5684 5683 5682 5680 5679 5678 5676 5675 5674 5672 5671 5669 5667 5666 5664 5662 5661 5659 5657
5693 5692 5692 5692 5692 5692 5691 5691 5690 5689 5689 5690 5690 5690 5690 5690 5690 5690 5689 5687 5686 5684 5683 5682 5681 5679 5678 5677 5675 5674 5672 5671 5669 5668 5666 5665 5663 5661 5660 5658 5657 5655 5653
5687 5687 5686 5687 5688 5688 5687 5686 5686 5686 5685 5685 5685 5686 5686 5686 5686 5686 5686 5684 5682 5681 5679 5678 5677 5676 5675 5673 5672 5670 5669 5667 5665 5663 5662 5660 5659 5657 5655 5654 5652 5650 5649
5679 5680 5680 5681 5683 5683 5682 5681 5680 5679 5679 5679 5678 5679 5680 5681 5681 5681 5681 5680 5678 5677 5676 5674 5673 5672 5671 5670 5668 5667 5665 5663 5661 5659 5657 5656 5654 5653 5651 5649 5647 5646 5644
5671 5672 5674 5675 5676 5676 5675 5675 5674 5674 5672 5672 5672 5672 5673 5674 5675 5676 5676 5676 5675 5674 5672 5670 5669 5668 5667 5665 5664 5662 5661 5659 5657 5655 5653 5651 5649 5648 5646 5644 5642 5641 5639
5663 5664 5666 5667 5668 5667 5667 5668 5667 5667 5666 5665 5665 5666 5666 5668 5669 5670 5671 5671 5671 5670 5668 5667 5665 5664 5662 5661 5659 5658 5656 5654 5652 5651 5649 5647 5645 5643 5642 5640 5638 5636 5634
5654 5655 5657 5658 5659 5659 5659 5660 5659 5659 5658 5658 5655 5654 5657 5660 5662 5664 5665 5666 5666 5666 5664 5663 5661 5660 5658 5657 5655 5654 5652 5650 5648 5646 5644 5642 5640 5638 5637 5635 5633 5632 5630
5644 5646 5647 5648 5650 5650 5650 5651 5651 5650 5650 5650 5646 5642 5642 5646 5653 5658 5659 5660 5660 5660 5659 5659 5657 5656 5655 5653 5652 5650 5648 5646 5644 5642 5640 5637 5635 5633 5632 5630 5629 5627 5625
5634 5636 5637 5639 5640 5641 5641 5643 5644 5643 5641 5641 5642 5638 5635 5637 5643 5648 5653 5655 5655 5654 5654 5654 5653 5652 5651 5649 5647 5645 5643 5641 5639 5637 5635 5633 5631 5629 5627 5625 5624 5622 5620
5622 5624 5627 5629 5630 5631 5632 5634 5636 5636 5634 5633 5633 5635 5636 5637 5634 5636 5643 5648 5649 5649 5649 5649 5648 5647 5646 5645 5643 5641 5638 5636 5633 5631 5630 5629 5626 5624 5622 5620 5619 5617 5615
5610 5613 5615 5617 5620 5621 5622 5624 5625 5626 5627 5627 5626 5627 5627 5628 5629 5627 5630 5635 5638 5642 5643 5643 5643 5642 5641 5640 5638 5636 5634 5631 5628 5626 5625 5623 5622 5620 5618 5616 5614 5612 5610
5597 5600 5603 5605 5608 5610 5612 5614 5616 5617 5618 5619 5620 5621 5622 5622 5623 5622 5622 5625 5628 5632 5635 5636 5637 5637 5636 5635 5633 5631 5628 5626 5623 5621 5619 5618 5616 5615 5613 5611 5609 5607 5605
5583 5587 5591 5594 5596 5599 5602 5604 5606 5607 5609 5611 5613 5615 5616 5619 5620 5619 5617 5618 5619 5623 5626 5629 5631 5630 5630 5629 5627 5625 5622 5619 5617 5615 5613 5612 5610 5608 5606 5605 5603 5601 5599
5571 5575 5579 5582 5585 5587 5590 5592 5596 5598 5600 5602 5605 5607 5609 5611 5612 5612 5612 5609 5609 5611 5615 5619 5622 5623 5623 5621 5620 5617 5614 5612 5609 5607 5606 5604 5603 5601 5599 5597 5596 5594 5592
5559 5563 5567 5570 5571 5574 5577 5580 5583 5587 5589 5592 5594 5597 5599 5602 5603 5605 5605 5604 5601 5602 5606 5611 5611 5614 5613 5612 5611 5607 5605 5604 5601 5600 5598 5596 5595 5593 5591 5590 5588 5586 5585
5547 5551 5555 5558 5560 5562 5564 5567 5570 5573 5576 5579 5583 5585 5589 5592 5593 5595 5595 5595 5594 5594 5598 5603 5602 5603 5602 5601 5600 5598 5597 5595 5593 5592 5590 5589 5587 5585 5583 5581 5580 5578 5577
5536 5540 5543 5546 5547 5549 5552 5554 5557 5560 5563 5566 5570 5573 5576 5579 5581 5582 5583 5584 5584 5583 5586 5590 5590 5590 5590 5589 5588 5586 5585 5584 5583 5583 5582 5580 5578 5576 5574 5572 5571 5569 5568
5525 5529 5532 5534 5536 5538 5540 5543 5545 5547 5550 5553 5557 5559 5562 5565 5567 5569 5571 5571 5572 5573 5573 5576 5577 5576 5577 5577 5576 5574 5573 5573 5572 5572 5571 5570 5568 5566 5564 5563 5562 5560 5559
5515 5518 5520 5522 5524 5526 5528 5530 5532 5535 5537 5540 5543 5545 5548 5550 5552 5554 5555 5557 5558 5560 5560 5562 5563 5563 5563 5563 5562 5562 5561 5560 5560 5559 5558 5558 5556 5555 5553 5552 5551 5551 5550
5506 5507 5509 5511 5512 5514 5516 5518 5520 5522 5525 5527 5529 5531 5533 5535 5536 5539 5541 5542 5544 5546 5547 5548 5549 5548 5548 5548 5547 5547 5547 5546 5546 5545 5545 5544 5543 5542 5542 5541 5541 5541 5540
5497 5498 5499 5500 5501 5503 5504 5506 5508 5510 5512 5514 5516 5518 5519 5521 5522 5524 5526 5527 5529 5530 5532 5533 5534 5532 5532 5531 5531 5531 5531 5531 5531 5531 5531 5531 5530 5530 5530 5530 5530 5530 5530
5489 5489 5490 5490 5491 5492 5493 5496 5497 5499 5500 5501 5502 5503 5505 5507 5508 5509 5511 5512 5513 5514 5516 5518 5518 5518 5518 5517 5516 5515 5514 5512 5515 5516 5514 5517 5516 5517 5518 5518 5519 5519 5520
5480 5480 5481 5481 5481 5482 5483 5485 5487 5487 5487 5487 5488 5490 5491 5492 5492 5493 5495 5496 5496 5497 5499 5501 5502 5502 5502 5501 5500 5499 5498 5498 5500 5500 5496 5501 5501 5503 5505 5505 5506 5507 5508
5471 5471 5471 5471 5471 5471 5472 5474 5475 5474 5474 5474 5474 5475 5476 5476 5476 5477 5478 5478 5479 5480 5482 5483 5484 5485 5485 5485 5484 5484 5484 5483 5482 5481 5480 5483 5486 5487 5490 5490 5491 5492 5493
5463 5462 5461 5461 5460 5460 5461 5461 5461 5460 5460 5459 5459 5459 5459 5459 5460 5461 5461 5460 5462 5463 5463 5464 5464 5466 5467 5467 5466 5465 5463 5462 5464 5465 5462 5464 5468 5468 5471 5473 5475 5475 5477
5455 5454 5453 5451 5450 5449 5449 5448 5448 5446 5446 5445 5444 5443 5443 5443 5443 5442 5441 5441 5442 5444 5445 5446 5447 5448 5448 5448 5447 5446 5445 5444 5446 5448 5447 5445 5447 5446 5450 5454 5456 5457 5459